TimeEST,TemperatureF,Dew PointF,Humidity,Sea Level PressureIn,VisibilityMPH,Wind Direction,Wind SpeedMPH,Gust SpeedMPH,PrecipitationIn,Events,Conditions,WindDirDegrees,DateUTC
12:15 AM,30.6,25.5,82,30.44,10.0,NE,4.6,-,N/A,,Clear,40,2012-11-14 05:15:00
12:35 AM,29.7,26.1,86,30.44,10.0,NNE,6.9,-,N/A,,Clear,30,2012-11-14 05:35:00
12:55 AM,30.0,25.7,84,30.44,10.0,NNE,5.8,-,N/A,,Clear,30,2012-11-14 05:55:00
1:15 AM,30.7,25.7,82,30.44,10.0,NNE,4.6,-,N/A,,Clear,30,2012-11-14 06:15:00
1:35 AM,30.9,25.5,80,30.44,10.0,NNE,3.5,-,N/A,,Clear,30,2012-11-14 06:35:00
1:55 AM,32.2,25.0,75,30.44,10.0,Calm,Calm,-,N/A,,Clear,0,2012-11-14 06:55:00
2:15 AM,32.0,25.0,75,30.45,10.0,Calm,Calm,-,N/A,,Clear,0,2012-11-14 07:15:00
2:35 AM,30.0,24.8,81,30.44,10.0,Calm,Calm,-,N/A,,Clear,0,2012-11-14 07:35:00
2:55 AM,27.7,24.8,89,30.44,10.0,NNE,4.6,-,N/A,,Clear,30,2012-11-14 07:55:00
3:15 AM,27.9,25.7,92,30.43,10.0,NE,4.6,-,N/A,,Clear,50,2012-11-14 08:15:00
3:35 AM,28.9,24.8,84,30.43,10.0,NE,5.8,-,N/A,,Clear,50,2012-11-14 08:35:00
3:55 AM,27.3,24.4,89,30.42,10.0,ENE,5.8,-,N/A,,Clear,60,2012-11-14 08:55:00
4:15 AM,28.4,24.8,86,30.43,10.0,ENE,5.8,-,N/A,,Clear,60,2012-11-14 09:15:00
4:35 AM,27.9,24.3,86,30.43,10.0,ENE,4.6,-,N/A,,Clear,60,2012-11-14 09:35:00
4:55 AM,27.0,24.6,91,30.43,10.0,NE,4.6,-,N/A,,Clear,50,2012-11-14 09:55:00
5:15 AM,26.6,25.0,94,30.43,10.0,Calm,Calm,-,N/A,,Clear,0,2012-11-14 10:15:00
5:35 AM,27.5,24.8,90,30.44,10.0,Calm,Calm,-,N/A,,Clear,0,2012-11-14 10:35:00
5:55 AM,26.2,24.8,94,30.44,10.0,North,3.5,-,N/A,,Clear,10,2012-11-14 10:55:00
6:15 AM,25.9,24.4,94,30.44,10.0,NE,3.5,-,N/A,,Clear,40,2012-11-14 11:15:00
6:35 AM,26.2,25.0,95,30.43,10.0,ENE,3.5,-,N/A,,Clear,70,2012-11-14 11:35:00
6:55 AM,27.1,24.6,90,30.43,10.0,ENE,4.6,-,N/A,,Clear,60,2012-11-14 11:55:00
7:15 AM,27.0,24.3,90,30.44,10.0,Calm,Calm,-,N/A,,Clear,0,2012-11-14 12:15:00
7:35 AM,27.7,24.6,88,30.45,10.0,Calm,Calm,-,N/A,,Clear,0,2012-11-14 12:35:00
7:55 AM,28.4,25.3,88,30.46,10.0,Calm,Calm,-,N/A,,Clear,0,2012-11-14 12:55:00
8:15 AM,29.3,25.5,86,30.46,10.0,NNE,3.5,-,N/A,,Clear,20,2012-11-14 13:15:00
8:35 AM,30.7,26.6,85,30.46,10.0,NE,4.6,-,N/A,,Clear,50,2012-11-14 13:35:00
8:55 AM,31.5,26.4,82,30.47,10.0,ENE,4.6,-,N/A,,Clear,70,2012-11-14 13:55:00
9:15 AM,32.0,26.8,81,30.47,10.0,ENE,5.8,-,N/A,,Clear,60,2012-11-14 14:15:00
9:35 AM,33.8,28.0,79,30.47,10.0,NE,5.8,-,N/A,,Clear,50,2012-11-14 14:35:00
9:55 AM,34.9,28.9,79,30.46,10.0,ENE,3.5,-,N/A,,Clear,70,2012-11-14 14:55:00
10:15 AM,36.0,28.6,75,30.46,10.0,NE,4.6,-,N/A,,Clear,50,2012-11-14 15:15:00
10:35 AM,36.9,29.1,74,30.45,10.0,NE,4.6,-,N/A,,Clear,40,2012-11-14 15:35:00
11:15 AM,40.1,29.7,66,30.43,10.0,NNE,6.9,-,N/A,,Clear,30,2012-11-14 16:15:00
11:35 AM,40.6,28.8,63,30.42,10.0,ENE,6.9,-,N/A,,Clear,70,2012-11-14 16:35:00
11:55 AM,41.9,29.5,61,30.42,10.0,ENE,6.9,-,N/A,,Clear,60,2012-11-14 16:55:00
12:15 PM,43.0,28.9,58,30.41,10.0,NNE,3.5,-,N/A,,Clear,20,2012-11-14 17:15:00
12:35 PM,44.6,29.1,55,30.40,10.0,NNE,5.8,-,N/A,,Clear,20,2012-11-14 17:35:00
12:55 PM,44.4,28.4,53,30.39,10.0,North,4.6,-,N/A,,Scattered Clouds,10,2012-11-14 17:55:00
1:15 PM,44.4,28.4,53,30.38,10.0,NE,8.1,-,N/A,,Clear,50,2012-11-14 18:15:00
1:55 PM,45.1,27.5,50,30.37,10.0,NE,4.6,-,N/A,,Clear,50,2012-11-14 18:55:00
2:15 PM,45.5,27.3,49,30.37,10.0,NE,4.6,-,N/A,,Clear,50,2012-11-14 19:15:00
2:35 PM,45.5,27.3,49,30.37,10.0,North,4.6,-,N/A,,Clear,360,2012-11-14 19:35:00
2:55 PM,46.2,27.5,48,30.36,10.0,Calm,Calm,-,N/A,,Clear,0,2012-11-14 19:55:00
3:15 PM,45.7,27.5,49,30.36,10.0,North,3.5,-,N/A,,Clear,360,2012-11-14 20:15:00
3:35 PM,45.5,27.3,49,30.35,10.0,North,4.6,-,N/A,,Clear,10,2012-11-14 20:35:00
3:55 PM,45.5,27.7,50,30.35,10.0,NNE,9.2,-,N/A,,Clear,20,2012-11-14 20:55:00
4:15 PM,44.6,26.6,49,30.35,10.0,North,4.6,-,N/A,,Clear,10,2012-11-14 21:15:00
4:35 PM,43.3,27.3,53,30.35,10.0,NE,3.5,-,N/A,,Clear,40,2012-11-14 21:35:00
4:55 PM,42.3,27.3,56,30.35,10.0,NNE,3.5,-,N/A,,Clear,30,2012-11-14 21:55:00
5:15 PM,41.4,27.0,57,30.34,10.0,NNE,3.5,-,N/A,,Clear,30,2012-11-14 22:15:00
5:35 PM,40.6,26.6,57,30.34,10.0,NE,4.6,-,N/A,,Clear,40,2012-11-14 22:35:00
5:55 PM,40.8,26.4,57,30.34,10.0,NNE,3.5,-,N/A,,Clear,30,2012-11-14 22:55:00
6:15 PM,39.9,26.6,59,30.35,10.0,NNE,5.8,-,N/A,,Clear,30,2012-11-14 23:15:00
6:35 PM,40.1,26.4,58,30.35,10.0,NNE,5.8,-,N/A,,Clear,30,2012-11-14 23:35:00
6:55 PM,39.4,26.4,60,30.35,10.0,NE,5.8,-,N/A,,Clear,40,2012-11-14 23:55:00
7:15 PM,39.6,26.4,59,30.36,10.0,NE,5.8,-,N/A,,Clear,40,2012-11-15 00:15:00
7:35 PM,38.7,26.4,61,30.36,10.0,NE,4.6,-,N/A,,Clear,40,2012-11-15 00:35:00
7:55 PM,39.0,26.2,60,30.36,10.0,Calm,Calm,-,N/A,,Clear,0,2012-11-15 00:55:00
8:15 PM,37.8,26.4,64,30.36,10.0,NNE,4.6,-,N/A,,Clear,20,2012-11-15 01:15:00
8:35 PM,37.6,26.6,65,30.36,10.0,NNE,3.5,-,N/A,,Clear,30,2012-11-15 01:35:00
8:55 PM,35.6,27.0,71,30.35,10.0,NNE,4.6,-,N/A,,Clear,30,2012-11-15 01:55:00
9:15 PM,35.2,26.8,71,30.35,10.0,NE,4.6,-,N/A,,Clear,40,2012-11-15 02:15:00
9:35 PM,35.4,27.0,71,30.34,10.0,NE,5.8,-,N/A,,Clear,50,2012-11-15 02:35:00
9:55 PM,34.5,26.6,73,30.34,10.0,NE,3.5,-,N/A,,Clear,40,2012-11-15 02:55:00
10:15 PM,35.8,26.6,69,30.35,10.0,Calm,Calm,-,N/A,,Clear,0,2012-11-15 03:15:00
10:35 PM,35.4,26.6,70,30.34,10.0,Calm,Calm,-,N/A,,Clear,0,2012-11-15 03:35:00
10:55 PM,33.8,27.5,78,30.32,10.0,NE,6.9,-,N/A,,Clear,50,2012-11-15 03:55:00
11:15 PM,34.9,27.3,74,30.31,10.0,NNE,4.6,-,N/A,,Clear,30,2012-11-15 04:15:00
11:35 PM,35.8,27.0,70,30.31,10.0,NNW,3.5,-,N/A,,Clear,340,2012-11-15 04:35:00
11:55 PM,35.6,27.1,71,30.31,10.0,Calm,Calm,-,N/A,,Clear,0,2012-11-15 04:55:00